Flag for U.S.A. Weather past 2 weeks in Carson City, Nevada, U.S.A.

62 °F

Passing clouds.

Feels Like: 62 °F
Forecast: 48 / 85 °F
Wind: No wind

Location: Reno Tahoe International Airport

Current Time: Oct 9, 2015 at 12:48:07 AM

Latest Report: Oct 8, 2015 at 11:55 PM

Visibility: 10 mi

Pressure: 30.12 "Hg (25.47 "Hg at 1425m altitude)

Humidity: 48%

Dew point: 42 °F

Location of Carson CityLocation

Historic Weather in Carson City — Graph


Carson City temperature yesterday

Maximum temperature yesterday: 84 °F (at 1:55 PM)
Minimum temperature yesterday: 56 °F (at 6:55 AM)
Average temperature yesterday: 70 °F

Past Weeks' High & Low Weather Summary

High91 °F (Sep 25, 2:55 PM)90% (Oct 1, 5:55 AM)30.20 "Hg (Oct 1, 5:55 AM)
Low45 °F (Oct 3, 6:55 AM)7% (Sep 24, 2:55 PM)29.42 "Hg (Oct 3, 4:55 PM)
Average66 °F44%29.92 "Hg
* Reported Sep 23 11:55 PM — Oct 8 11:55 PM, Carson City, Weather by CustomWeather, © 2015

Note: Actual official high and low records may vary slightly from our data, if they occured in-between our weather recording intervals... More about our weather records


Carson City weather history for previous 24 hours

Time TempWeatherWind HumidityBarometerVisibility
11:55 PM
Thu, Oct 8
62 °FPassing clouds.No wind48%30.12 "Hg10 mi
10:55 PM65 °FPassing clouds.3 mph40%30.14 "Hg10 mi
9:55 PM67 °FPassing clouds.No wind39%30.14 "Hg10 mi
8:55 PM70 °FPassing clouds.No wind37%30.11 "Hg10 mi
7:55 PM76 °FPassing clouds.No wind25%30.11 "Hg10 mi
6:55 PM77 °FBroken clouds.7 mph24%30.10 "Hg10 mi
5:55 PM82 °FBroken clouds.7 mph19%30.07 "Hg10 mi
4:55 PM84 °FBroken clouds.5 mph17%30.06 "Hg10 mi
3:55 PM84 °FMore clouds than sun.6 mph17%30.05 "Hg10 mi
2:55 PM83 °FBroken clouds.No wind17%30.06 "Hg10 mi
1:55 PM84 °FBroken clouds.9 mph18%30.07 "Hg10 mi
12:55 PM81 °FBroken clouds.5 mph20%30.09 "Hg10 mi
11:55 AM78 °FPartly sunny.6 mph25%30.13 "Hg10 mi
10:55 AM70 °FPartly sunny.3 mph35%30.16 "Hg10 mi
9:55 AM66 °FBroken clouds.No wind40%30.19 "Hg10 mi
8:55 AM63 °FPartly sunny.3 mph48%30.20 "Hg10 mi
7:55 AM58 °FPassing clouds.No wind58%30.20 "Hg10 mi
6:55 AM56 °FPartly cloudy.3 mph67%30.19 "Hg10 mi
5:55 AM59 °FPassing clouds.No wind56%30.16 "Hg10 mi
4:55 AM58 °FPassing clouds.No wind60%30.14 "Hg10 mi
3:55 AM61 °FPassing clouds.3 mph50%30.12 "Hg10 mi
2:55 AM62 °FOvercast.No wind50%30.15 "Hg10 mi
1:55 AM62 °FOvercast.5 mph50%30.15 "Hg10 mi
12:55 AM64 °FOvercast.3 mph45%30.15 "Hg10 mi
Weather by CustomWeather, © 2015

See weather overviewHow to use our weather pages